Tracking 19638 objects as of 21-Apr-2019
HD Live streaming from Space Station
objects crossing your sky now

RADUGA 4

Track RADUGA 4 now!
RADUGA 4 is classified as:


NORAD ID: 10987
Int'l Code: 1978-073A
Perigee: 35,753.8 km
Apogee: 35,854.9 km
Inclination: 11.0 °
Period: 1,436.6 minutes
Semi major axis: 42175 km
RCS: 1 m2 (large)
Launch date: July 18, 1978
Source: Commonwealth of Independent States (former USSR) (CIS)
Launch site: TYURATAM MISSILE AND SPACE COMPLEX (TTMTR)
aabbcc
Your satellite tracking list
Your tracking list is empty




NASA's NSSDC Master Catalog

Two Line Element Set (TLE):
1 10987U 78073A   19110.51854771 -.00000366 +00000-0 +00000-0 0  9996
2 10987 010.9939 311.0109 0011994 335.5857 214.3666 01.00233933093388
Source of the keplerian elements: AFSPC